Hourly Data Report for October 06, 2017

All times are specified in Local Standard Time (LST). Add 1 hour to adjust for Daylight Saving Time where and when it is observed.

CAPE DORSET A
NUNAVUT

64°13'49.000" N
76°31'30.000" W
48.20 m
2400637
71366
YTE

Download Data

Hourly Data (October 2017)
Hourly Data Report for October 6, 2017
Temp Definition
°C
Dew Point Temp Definition
°C
Rel Hum Definition
%
Wind Dir Definition
10's deg

Wind Spd Definition
km/h
Visibility Definition
km
Stn Press Definition
kPa
Hmdx Definition


Wind Chill Definition


Weather Definition


TIME
00:00 Legend Double Dagger -0.2 -0.6 97 12 22 16.1 98.27   -6 LegendNANA
01:00 Legend Double Dagger -0.4 -0.7 98 11 24 16.1 98.26   -6 LegendNANA
02:00 Legend Double Dagger -0.5 -1.1 96 10 24 16.1 98.28   -6 Snow
03:00 Legend Double Dagger -0.9 -1.0 99 10 13 8.1 98.28   -5 Snow
04:00 Legend Double Dagger -1.0 -1.1 99 11 18 3.2 98.30   -6 Snow
05:00 Legend Double Dagger -1.1 -1.2 99 8 17 2.4 98.30   -6 Snow
06:00 Legend Double Dagger -1.5 -1.8 98 5 13 6.4 98.29   -6 Snow
07:00 Legend Double Dagger -1.8 -2.2 97 1 8 14.5 98.27   -5 Snow
08:00 Legend Double Dagger -2.3 -2.6 98 2 5 16.1 98.28   -4 LegendNANA
09:00 Legend Double Dagger -1.8 -2.2 97   0 11.3 98.28     LegendNANA
10:00 Legend Double Dagger -1.6 -2.0 97   0 16.1 98.29     LegendNANA
11:00 Legend Double Dagger -0.8 -1.1 98 LegendMM 4 9.7 98.30   -2 Snow
12:00 Legend Double Dagger -0.2 -0.3 99 8 32 3.6 98.27   -7 Snow
13:00 Legend Double Dagger -0.2 -0.9 95 7 24 16.1 98.34   -6 Snow
14:00 Legend Double Dagger -0.5 -1.1 96 5 18 16.1 98.39   -6 Snow
15:00 Legend Double Dagger -0.9 -1.2 98 5 18 9.7 98.44   -6 Snow
16:00 Legend Double Dagger -1.1 -1.7 96 4 17 16.1 98.48   -6 Snow
17:00 Legend Double Dagger -1.1 -1.7 96 3 13 16.1 98.53   -5 LegendNANA
18:00 Legend Double Dagger -1.4 -2.0 96 2 18 16.1 98.59   -7 LegendNANA
19:00 Legend Double Dagger -1.6 -2.2 96 4 15 16.1 98.64   -6 Snow
20:00 Legend Double Dagger -1.8 -2.5 95 1 15 16.1 98.70   -7 LegendNANA
21:00 Legend Double Dagger -2.2 -3.6 90 36 15 16.1 98.75   -7 Snow
22:00 Legend Double Dagger -2.7 -4.7 86 34 9 16.1 98.82   -6 LegendNANA
23:00 Legend Double Dagger -2.4 -4.1 88 35 11 16.1 98.84   -6 LegendNANA

Notes on Data Quality.

Legend

  • E = Estimated
  • M = Missing
  • NA = Not Available
  • ‡ = Partner data that is not subject to review by the National Climate Archives
Date modified: